Погода в Воронино

Россия / Новгородская область     58°33′56″N   30°35′49″E
темп.,
°C
ветер,
м/с
пор.,
м/с
влажн.,
%
обл.,
%
осадки,
мм/ч
давл.,
гПа
погр.,
м
19 сентября, вс
вс1900:00+4всв4118885 0.0 1025474
03:00+3всв4118998 0.0 1025396
06:00+2всв41188100 0.0 1025382
09:00+4всв51375100 0.0 1024554
12:00+8всв51063100 0.0 1024946
15:00+9всв51058100 0.0 10241128
18:00+8всв51064100 0.0 10231065
21:00+6всв51168100 0.0 1024918
20 сентября, пн
пн2000:00+6всв51271100 0.0 1023892
03:00+5всв51175100 0.0 1023910
06:00+5всв51278100 0.0 1023817
09:00+5всв61374100 0.0 1024803
12:00+7всв61164100 0.0 1023997
15:00+9всв51056100 0.0 10221174
18:00+7всв51162100 0.0 10221073
21:00+5всв5106798 0.0 1023928
21 сентября, вт
вт2100:00+4св4107462 0.0 1023660
03:00+3св497873 0.0 1022557
06:00+3св4981100 0.0 1021541
09:00+4св4877100 0.0 1020505
12:00+7св4668100 0.0 1020940
15:00+7св4776100 0.0 10191030
18:00+4св4897100 0.9 1020717
21:00+4св3798100 1.9 1020763
22 сентября, ср
ср2200:00+4ссв3698100 0.3 1020716
03:00+5ссв3798100 0.4 1020548
06:00+5ссв3798100 0.2 1020515
09:00+5ссв3897100 0.3 1020507
12:00+6ссв3894100 0.0 1020483
15:00+7ссв3992100 0.0 1019569
18:00+7ссв31089100 0.0 1019548
21:00+6св3989100 0.0 1018443
23 сентября, чт
чт2300:00+6св2790100 0.0 1016324
03:00+5всв2594100 0.1 1015255
06:00+5в1597100 0.2 1014246
09:00+6юв1496100 0.2 1013335
12:00+6ююв2592100 0.1 1012623
15:00+6ююв3692100 0.1 1010717
18:00+6ююв3893100 0.0 1009612
21:00+6ююв499371 0.1 1007660